Visibility
15.0 15.0 14.4 15.0 13.1 15.0 15.0 15.0 15.0 15.0 15.0 15.0 15.0 15.0 15.0 15.0 15.0 15.0 15.0 15.0 15.0 15.0 15.0 15.0 15.0 15.0 15.0 15.0 15.0 15.0 15.0 15.0 15.0 15.0 15.0 15.0 15.0 15.0 15.0 15.0 15.0 15.0 15.0 15.0 15.0
15.0 15.0 15.0 15.0 9.9 15.0 15.0 15.0 15.0 15.0 15.0 15.0 15.0 15.0 15.0 15.0 15.0 15.0 15.0 15.0 15.0 15.0 15.0 15.0 15.0 15.0 15.0 15.0 15.0 15.0 15.0 15.0 15.0 15.0 15.0 15.0 15.0 15.0 15.0 15.0 15.0 15.0 15.0 15.0 15.0
15.0 15.0 15.0 15.0 15.0 15.0 15.0 15.0 15.0 15.0 15.0 15.0 14.5 15.0 15.0 12.9 15.0 15.0 15.0 15.0 15.0 15.0 15.0 15.0 15.0 15.0 15.0 15.0 15.0 15.0 15.0 15.0 15.0 15.0 15.0 15.0 15.0 15.0 15.0 15.0 15.0 15.0 15.0 15.0 15.0
15.0 15.0 15.0 15.0 15.0 15.0 13.9 14.0 15.0 15.0 15.0 15.0 15.0 15.0 8.4 15.0 15.0 15.0 15.0 15.0 15.0 15.0 15.0 15.0 15.0 15.0 15.0 15.0 15.0 15.0 15.0 15.0 15.0 15.0 15.0 15.0 15.0 15.0 15.0 15.0 15.0 15.0 15.0 15.0 15.0
15.0 15.0 15.0 15.0 15.0 15.0 15.0 12.5 13.2 15.0 15.0 15.0 15.0 15.0 7.0 15.0 15.0 15.0 15.0 15.0 15.0 15.0 15.0 15.0 15.0 15.0 15.0 15.0 15.0 15.0 15.0 15.0 15.0 15.0 15.0 15.0 15.0 15.0 15.0 15.0 15.0 15.0 15.0 15.0 15.0
15.0 15.0 15.0 15.0 15.0 15.0 15.0 12.9 8.5 15.0 14.4 15.0 15.0 13.5 13.3 15.0 15.0 15.0 15.0 15.0 15.0 15.0 15.0 15.0 15.0 15.0 15.0 15.0 15.0 15.0 15.0 15.0 15.0 15.0 15.0 15.0 15.0 15.0 15.0 15.0 15.0 15.0 15.0 15.0 15.0
15.0 15.0 15.0 15.0 15.0 15.0 15.0 15.0 10.8 14.6 15.0 15.0 15.0 15.0 3.9 15.0 15.0 15.0 15.0 15.0 15.0 15.0 15.0 15.0 15.0 15.0 15.0 15.0 15.0 15.0 15.0 15.0 15.0 15.0 15.0 15.0 15.0 15.0 15.0 15.0 15.0 15.0 15.0 15.0 15.0
15.0 15.0 15.0 15.0 15.0 15.0 15.0 15.0 14.6 7.6 14.5 11.0 14.3 10.1 3.3 15.0 15.0 15.0 15.0 15.0 15.0 15.0 15.0 15.0 15.0 15.0 14.9 15.0 15.0 15.0 15.0 15.0 15.0 15.0 15.0 15.0 15.0 15.0 15.0 15.0 15.0 15.0 15.0 15.0 15.0
15.0 15.0 15.0 15.0 15.0 15.0 15.0 15.0 14.0 5.6 4.2 12.2 12.4 14.3 15.0 15.0 15.0 14.8 9.5 15.0 15.0 15.0 15.0 10.1 10.8 15.0 15.0 15.0 15.0 14.9 15.0 15.0 15.0 15.0 15.0 15.0 15.0 15.0 15.0 15.0 15.0 15.0 15.0 15.0 15.0
15.0 15.0 15.0 15.0 15.0 12.5 15.0 15.0 15.0 8.1 6.2 4.0 7.7 4.7 15.0 15.0 15.0 15.0 15.0 15.0 14.5 8.4 15.0 15.0 7.3 15.0 15.0 11.6 13.8 15.0 15.0 15.0 15.0 15.0 15.0 15.0 15.0 15.0 15.0 15.0 15.0 15.0 15.0 15.0 15.0
15.0 15.0 15.0 15.0 15.0 13.3 10.5 8.2 0.1 0.0 0.3 5.6 5.6 15.0 15.0 15.0 15.0 15.0 4.9 15.0 6.3 4.1 15.0 12.7 15.0 15.0 15.0 15.0 15.0 15.0 15.0 15.0 15.0 15.0 15.0 15.0 15.0 15.0 15.0 15.0 15.0 15.0 15.0 15.0 15.0
15.0 14.8 15.0 15.0 14.6 11.5 8.8 13.2 15.0 15.0 0.2 5.7 14.9 15.0 15.0 15.0 15.0 15.0 8.0 6.5 4.2 15.0 14.5 8.0 10.0 15.0 15.0 15.0 15.0 15.0 15.0 15.0 15.0 15.0 15.0 15.0 15.0 15.0 15.0 15.0 15.0 15.0 15.0 15.0 15.0
15.0 15.0 15.0 15.0 11.4 9.4 15.0 15.0 15.0 4.4 1.9 2.4 6.9 15.0 15.0 15.0 15.0 15.0 15.0 15.0 13.8 10.6 15.0 14.8 15.0 15.0 15.0 15.0 13.3 15.0 15.0 15.0 15.0 15.0 15.0 15.0 15.0 15.0 15.0 15.0 15.0 15.0 15.0 15.0 15.0
15.0 12.5 11.7 14.7 7.0 12.7 15.0 15.0 12.2 5.7 0.1 0.0 0.1 9.6 15.0 15.0 9.2 15.0 15.0 15.0 8.2 15.0 15.0 8.3 15.0 15.0 15.0 15.0 15.0 15.0 15.0 15.0 15.0 14.5 15.0 15.0 14.7 15.0 15.0 15.0 15.0 15.0 15.0 15.0 15.0
14.9 15.0 9.0 7.2 14.4 15.0 14.6 15.0 10.0 2.4 0.0 9.6 0.4 15.0 15.0 15.0 15.0 15.0 3.3 7.2 15.0 15.0 9.6 5.1 15.0 15.0 15.0 15.0 15.0 15.0 15.0 15.0 15.0 15.0 13.8 15.0 15.0 15.0 15.0 15.0 15.0 15.0 15.0 15.0 15.0
12.9 14.9 11.7 5.4 7.4 15.0 15.0 13.9 5.0 0.0 0.0 0.5 3.8 9.3 15.0 15.0 15.0 14.0 5.8 4.7 10.5 8.9 15.0 13.9 14.8 12.3 15.0 15.0 13.2 12.9 15.0 14.3 12.7 9.0 0.1 15.0 15.0 15.0 15.0 15.0 15.0 15.0 15.0 15.0 15.0
13.7 10.0 6.8 7.1 11.0 13.1 10.5 0.3 0.0 0.0 4.3 0.1 0.3 15.0 15.0 14.8 15.0 13.8 0.1 0.1 0.5 1.1 0.1 8.8 13.1 14.9 15.0 15.0 14.7 12.6 6.8 0.0 0.0 0.0 0.6 15.0 15.0 15.0 15.0 15.0 15.0 15.0 15.0 15.0 15.0
6.8 6.2 8.8 7.2 10.8 9.5 7.3 0.0 0.0 1.2 1.1 3.6 10.5 15.0 2.6 14.1 9.6 14.4 14.2 0.3 14.8 15.0 15.0 0.1 0.5 13.8 15.0 15.0 13.1 15.0 5.7 3.4 0.1 0.4 15.0 15.0 15.0 15.0 15.0 15.0 15.0 15.0 15.0 15.0 15.0
5.6 6.0 15.0 7.3 11.9 7.5 0.1 0.0 0.4 10.9 2.2 4.4 13.0 0.2 0.1 6.5 5.3 9.0 3.8 15.0 14.8 11.3 2.8 1.7 0.5 15.0 15.0 15.0 15.0 0.2 0.0 5.6 0.1 12.6 15.0 15.0 15.0 15.0 15.0 15.0 15.0 15.0 15.0 15.0 15.0
5.5 5.3 8.7 8.5 9.7 0.2 0.0 0.1 0.3 15.0 15.0 12.0 1.7 7.3 0.3 0.1 6.5 9.6 3.6 12.1 15.0 15.0 15.0 12.7 4.4 15.0 15.0 15.0 10.2 7.0 6.7 0.0 0.0 0.1 6.4 15.0 15.0 15.0 15.0 15.0 15.0 15.0 15.0 15.0 15.0
6.1 0.0 13.6 15.0 7.2 0.0 0.0 0.2 0.0 13.2 4.6 14.7 2.9 0.0 0.0 0.1 15.0 9.2 15.0 15.0 15.0 15.0 15.0 14.7 7.5 0.1 0.4 0.1 0.1 2.2 3.5 0.5 2.7 2.7 9.6 15.0 15.0 15.0 15.0 15.0 15.0 15.0 15.0 15.0 15.0
0.8 0.0 15.0 15.0 0.0 0.0 0.1 0.0 14.5 6.9 13.4 6.0 10.3 14.2 1.1 10.8 15.0 15.0 15.0 15.0 15.0 15.0 15.0 14.9 10.1 0.1 13.6 15.0 5.8 4.8 8.1 10.2 2.3 14.3 15.0 15.0 15.0 15.0 15.0 15.0 15.0 15.0 15.0 15.0 15.0
0.0 5.1 6.5 15.0 0.1 0.1 0.0 0.1 15.0 15.0 1.1 0.1 12.4 10.4 5.4 15.0 0.7 15.0 15.0 15.0 15.0 15.0 15.0 15.0 0.1 0.0 0.3 0.1 1.8 14.4 15.0 15.0 12.9 11.9 15.0 15.0 15.0 15.0 15.0 15.0 15.0 15.0 15.0 15.0 15.0
0.0 0.0 0.1 0.8 15.0 9.6 0.2 0.0 0.1 15.0 15.0 11.3 5.4 10.7 8.0 15.0 14.1 15.0 15.0 15.0 15.0 15.0 15.0 15.0 14.4 15.0 15.0 13.6 15.0 0.1 15.0 15.0 15.0 0.0 15.0 15.0 15.0 15.0 15.0 15.0 15.0 15.0 15.0 15.0 15.0
0.0 0.1 0.0 0.0 3.4 1.0 0.1 0.0 3.8 4.6 8.2 15.0 3.6 10.0 14.8 15.0 12.0 15.0 15.0 15.0 15.0 15.0 11.8 15.0 15.0 15.0 15.0 15.0 15.0 15.0 15.0 15.0 1.3 14.0 1.4 12.0 15.0 15.0 15.0 15.0 15.0 15.0 15.0 15.0 15.0
0.4 0.3 0.6 15.0 15.0 15.0 15.0 0.1 0.4 0.0 4.0 1.8 0.5 15.0 15.0 15.0 15.0 15.0 15.0 15.0 15.0 15.0 15.0 15.0 15.0 15.0 15.0 15.0 15.0 9.0 15.0 15.0 15.0 15.0 15.0 15.0 15.0 15.0 15.0 15.0 15.0 15.0 15.0 15.0 15.0
13.8 15.0 15.0 15.0 15.0 15.0 15.0 15.0 15.0 14.7 13.6 15.0 15.0 15.0 15.0 15.0 15.0 15.0 15.0 15.0 15.0 15.0 11.5 15.0 7.2 12.0 1.1 15.0 15.0 14.5 15.0 15.0 14.3 6.7 14.1 15.0 15.0 15.0 13.3 15.0 15.0 15.0 15.0 15.0 15.0